Météo par heure à Allande

Ce jour, 14 Mai, Vendredi

Heure Température Précipitation Vent Pression Humidité
00:00 +4°C° 0 mm 1 m/s 677 mmHg 96%
01:00 +3°C° 0 mm 1 m/s 677 mmHg 96%
02:00 +3°C° 0 mm 1 m/s 676 mmHg 96%
03:00 +2°C° 0 mm 1 m/s 676 mmHg 96%
04:00 +2°C° 0 mm 1 m/s 676 mmHg 95%
05:00 +2°C° 0 mm 1 m/s 676 mmHg 94%
06:00 +2°C° 0 mm 1 m/s 677 mmHg 93%
07:00 +4°C° 0 mm 1 m/s 677 mmHg 80%
08:00 +7°C° 0 mm 1 m/s 677 mmHg 68%
09:00 +9°C° 0 mm 1 m/s 677 mmHg 56%
10:00 +10°C° 0 mm 2 m/s 677 mmHg 49%
11:00 +13°C° 0 mm 2 m/s 678 mmHg 42%
12:00 +15°C° 0 mm 2 m/s 678 mmHg 36%
13:00 +15°C° 0 mm 2 m/s 677 mmHg 42%
14:00 +13°C° 0 mm 3 m/s 677 mmHg 48%
15:00 +13°C° 0 mm 3 m/s 677 mmHg 55%
16:00 +13°C° 0 mm 3 m/s 676 mmHg 60%
17:00 +12°C° 0 mm 3 m/s 676 mmHg 65%
18:00 +12°C° 0 mm 3 m/s 675 mmHg 70%
19:00 +11°C° 0 mm 3 m/s 675 mmHg 73%
20:00 +10°C° 0 mm 3 m/s 675 mmHg 77%
21:00 +10°C° 0 mm 3 m/s 675 mmHg 80%
22:00 +10°C° 0.1 mm 3 m/s 675 mmHg 82%
23:00 +9°C° 0.1 mm 3 m/s 674 mmHg 84%

Demain, 15 Mai, Samedi

Heure Température Précipitation Vent Pression Humidité
00:00 +9°C° 0.1 mm 3 m/s 674 mmHg 86%
01:00 +9°C° 0.1 mm 3 m/s 674 mmHg 87%
02:00 +9°C° 0.1 mm 3 m/s 673 mmHg 88%
03:00 +9°C° 0.1 mm 3 m/s 673 mmHg 89%
04:00 +9°C° 0.8 mm 3 m/s 673 mmHg 91%
05:00 +9°C° 0.8 mm 3 m/s 673 mmHg 94%
06:00 +9°C° 0.8 mm 3 m/s 673 mmHg 96%
07:00 +9°C° 0.7 mm 3 m/s 673 mmHg 96%
08:00 +10°C° 0.7 mm 2 m/s 673 mmHg 96%
09:00 +10°C° 0.7 mm 2 m/s 673 mmHg 97%
10:00 +10°C° 0.5 mm 2 m/s 674 mmHg 97%
11:00 +10°C° 0.5 mm 2 m/s 674 mmHg 97%
12:00 +10°C° 0.5 mm 2 m/s 674 mmHg 97%
13:00 +10°C° 0.4 mm 2 m/s 674 mmHg 97%
14:00 +10°C° 0.4 mm 2 m/s 674 mmHg 97%
15:00 +12°C° 0.4 mm 2 m/s 674 mmHg 97%
16:00 +10°C° 0.5 mm 2 m/s 674 mmHg 96%
17:00 +10°C° 0.5 mm 2 m/s 674 mmHg 96%
18:00 +10°C° 0.5 mm 2 m/s 674 mmHg 96%
19:00 +10°C° 0.8 mm 2 m/s 674 mmHg 97%
20:00 +10°C° 0.8 mm 2 m/s 674 mmHg 97%
21:00 +10°C° 0.8 mm 2 m/s 674 mmHg 97%
22:00 +10°C° 1.1 mm 2 m/s 674 mmHg 97%
23:00 +10°C° 1.1 mm 2 m/s 674 mmHg 98%

Après-demain, 16 Mai, Dimanche

Heure Température Précipitation Vent Pression Humidité
00:00 +10°C° 1.1 mm 2 m/s 674 mmHg 98%
01:00 +10°C° 0.9 mm 2 m/s 673 mmHg 98%
02:00 +10°C° 0.9 mm 2 m/s 673 mmHg 98%
03:00 +10°C° 0.9 mm 2 m/s 673 mmHg 98%
04:00 +10°C° 1 mm 2 m/s 673 mmHg 98%
05:00 +11°C° 1 mm 1 m/s 673 mmHg 98%
06:00 +11°C° 1 mm 1 m/s 673 mmHg 98%
07:00 +10°C° 0.8 mm 1 m/s 674 mmHg 98%
08:00 +10°C° 0.8 mm 1 m/s 674 mmHg 98%
09:00 +10°C° 0.8 mm 1 m/s 675 mmHg 98%
10:00 +10°C° 0.2 mm 2 m/s 675 mmHg 94%
11:00 +10°C° 0.2 mm 2 m/s 675 mmHg 90%
12:00 +12°C° 0.2 mm 2 m/s 676 mmHg 85%
13:00 +12°C° 0.2 mm 2 m/s 676 mmHg 84%
14:00 +12°C° 0.2 mm 2 m/s 676 mmHg 82%
15:00 +12°C° 0.2 mm 2 m/s 676 mmHg 81%
16:00 +12°C° 0.1 mm 2 m/s 676 mmHg 81%
17:00 +10°C° 0.1 mm 2 m/s 676 mmHg 81%
18:00 +10°C° 0.1 mm 2 m/s 676 mmHg 82%
19:00 +8°C° 0.1 mm 2 m/s 676 mmHg 86%
20:00 +8°C° 0.1 mm 1 m/s 676 mmHg 89%
21:00 +7°C° 0.1 mm 1 m/s 677 mmHg 93%
22:00 +6°C° 0.1 mm 1 m/s 677 mmHg 94%
23:00 +6°C° 0.1 mm 1 m/s 677 mmHg 94%

17 Mai, Lundi

Heure Température Précipitation Vent Pression Humidité
00:00 +6°C° 0.1 mm 1 m/s 677 mmHg 94%
01:00 +4°C° 0 mm 2 m/s 677 mmHg 93%
02:00 +4°C° 0 mm 2 m/s 677 mmHg 92%
03:00 +4°C° 0 mm 2 m/s 677 mmHg 91%
04:00 +4°C° 0 mm 2 m/s 677 mmHg 89%
05:00 +4°C° 0 mm 2 m/s 678 mmHg 87%
06:00 +4°C° 0 mm 2 m/s 678 mmHg 85%
07:00 +5°C° 0 mm 2 m/s 679 mmHg 77%
08:00 +7°C° 0 mm 2 m/s 679 mmHg 70%
09:00 +8°C° 0 mm 2 m/s 680 mmHg 62%
10:00 +9°C° 0 mm 2 m/s 680 mmHg 57%
11:00 +10°C° 0 mm 2 m/s 680 mmHg 52%
12:00 +11°C° 0 mm 3 m/s 681 mmHg 47%
13:00 +12°C° 0 mm 3 m/s 681 mmHg 47%
14:00 +12°C° 0 mm 3 m/s 681 mmHg 46%
15:00 +13°C° 0 mm 3 m/s 681 mmHg 46%
16:00 +12°C° 0 mm 2 m/s 681 mmHg 53%
17:00 +10°C° 0 mm 2 m/s 681 mmHg 59%
18:00 +9°C° 0 mm 2 m/s 681 mmHg 66%
19:00 +8°C° 0 mm 1 m/s 681 mmHg 76%
20:00 +6°C° 0 mm 1 m/s 681 mmHg 86%
21:00 +5°C° 0 mm 1 m/s 681 mmHg 96%
22:00 +4°C° 0 mm 1 m/s 681 mmHg 96%
23:00 +4°C° 0 mm 1 m/s 681 mmHg 95%

18 Mai, Mardi

Heure Température Précipitation Vent Pression Humidité
00:00 +4°C° 0 mm 1 m/s 680 mmHg 94%
01:00 +4°C° 0 mm 1 m/s 680 mmHg 93%
02:00 +4°C° 0 mm 1 m/s 680 mmHg 92%
03:00 +4°C° 0 mm 1 m/s 680 mmHg 91%
04:00 +4°C° 0 mm 1 m/s 680 mmHg 87%
05:00 +5°C° 0 mm 1 m/s 680 mmHg 84%
06:00 +5°C° 0 mm 1 m/s 680 mmHg 81%
07:00 +8°C° 0 mm 1 m/s 680 mmHg 69%
08:00 +11°C° 0 mm 1 m/s 680 mmHg 57%
09:00 +13°C° 0 mm 1 m/s 680 mmHg 45%
10:00 +14°C° 0 mm 1 m/s 680 mmHg 47%
11:00 +14°C° 0 mm 1 m/s 680 mmHg 48%
12:00 +14°C° 0 mm 2 m/s 680 mmHg 49%
13:00 +13°C° 0 mm 1 m/s 680 mmHg 57%
14:00 +12°C° 0 mm 1 m/s 680 mmHg 65%
15:00 +12°C° 0 mm 1 m/s 679 mmHg 73%
16:00 +13°C° 0 mm 2 m/s 680 mmHg 72%
17:00 +14°C° 0 mm 2 m/s 680 mmHg 71%
18:00 +14°C° 0 mm 3 m/s 680 mmHg 70%
19:00 +14°C° 0 mm 2 m/s 680 mmHg 76%
20:00 +12°C° 0 mm 2 m/s 680 mmHg 82%
21:00 +10°C° 0 mm 2 m/s 680 mmHg 88%
22:00 +10°C° 0 mm 3 m/s 680 mmHg 87%
23:00 +10°C° 0 mm 3 m/s 679 mmHg 87%

19 Mai, Mercredi

Heure Température Précipitation Vent Pression Humidité
00:00 +10°C° 0 mm 3 m/s 679 mmHg 86%
01:00 +10°C° 0 mm 3 m/s 679 mmHg 85%
02:00 +10°C° 0 mm 3 m/s 679 mmHg 85%
03:00 +10°C° 0 mm 3 m/s 679 mmHg 84%
04:00 +10°C° 0 mm 3 m/s 679 mmHg 84%
05:00 +10°C° 0 mm 3 m/s 679 mmHg 84%
06:00 +11°C° 0 mm 3 m/s 679 mmHg 84%
07:00 +12°C° 0 mm 3 m/s 679 mmHg 75%
08:00 +14°C° 0 mm 3 m/s 680 mmHg 67%
09:00 +17°C° 0 mm 3 m/s 680 mmHg 58%
10:00 +17°C° 0 mm 3 m/s 680 mmHg 61%
11:00 +16°C° 0 mm 2 m/s 680 mmHg 64%
12:00 +16°C° 0 mm 2 m/s 680 mmHg 68%
13:00 +16°C° 0 mm 2 m/s 680 mmHg 71%
14:00 +16°C° 0 mm 2 m/s 680 mmHg 74%
15:00 +16°C° 0 mm 2 m/s 680 mmHg 77%
16:00 +14°C° 0.2 mm 2 m/s 680 mmHg 84%
17:00 +13°C° 0.2 mm 1 m/s 680 mmHg 90%
18:00 +12°C° 0.2 mm 1 m/s 680 mmHg 97%
19:00 +12°C° 0.3 mm 1 m/s 681 mmHg 98%
20:00 +11°C° 0.3 mm 1 m/s 681 mmHg 98%
21:00 +11°C° 0.3 mm 1 m/s 681 mmHg 99%
22:00 +11°C° 0.1 mm 1 m/s 681 mmHg 99%
23:00 +10°C° 0.1 mm 1 m/s 681 mmHg 99%
Voir plus

Nous avons besoin de votre consentement

Meteoprog et ses fournisseurs de services peuvent stocker et accéder à des données personnelles telles que des cookies, des identifiants d'appareils ou d'autres technologies similaires sur votre appareil et traiter ces données pour personnaliser le contenu et les publicités, ainsi que pour fournir des fonctionnalités de médias sociaux et analyser le trafic.

  • Stocker et/ou accéder à des informations sur votre appareil

    Des cookies, des identifiants d'appareils ou d'autres informations peuvent être stockés ou accessibles sur votre appareil aux fins indiquées ci-dessus.

  • Annonces et contenus personnalisés, mesure des annonces et des contenus, connaissance de l'audience et développement de produits

    Les annonces et le contenu peuvent être personnalisés en fonction d'un profil. D'autres données peuvent être ajoutées pour mieux personnaliser les annonces et le contenu. Les performances des publicités et du contenu peuvent être mesurées. Il est possible d'obtenir des informations sur le public qui a vu les publicités et le contenu. Ces données peuvent être utilisées pour développer ou améliorer l'expérience de l'utilisateur, les systèmes et les logiciels.

En cliquant sur "J'accepte", vous autorisez l'utilisation de cookies, des identifiants d'appareils, des balises web ou d'autres technologies similaires. Vos paramètres peuvent être modifiés dans le navigateur de votre appareil.

Dans certains cas, des intérêts légitimes peuvent être invoqués plutôt qu'un consentement. Vous pouvez en savoir plus à ce sujet dans notre Politique de confidentialité et de cookies.